Rocky Mount, NC

3:52 AM EDT on May 23, 2018 (GMT -0400)
Rocky Mount-Wilson Regional

Weather History for KRWI - October, 2010

Change the Weather History Date:

Friday, October 29, 2010

  Actual Average Record
Temperature  
Mean Temperature 52 °F -  
Max Temperature 62 °F 68 °F 85 °F (1984)
Min Temperature 42 °F 45 °F 25 °F (1957)
Degree Days  
Heating Degree Days 13    
Growing Degree Days 2 (Base 50)    
Moisture  
Dew Point 39 °F    
Average Humidity 59    
Maximum Humidity 89    
Minimum Humidity 38    
Precipitation  
Precipitation 0.00 in - - ()
Sea Level Pressure  
Sea Level Pressure 30.11 in    
Wind  
Wind Speed 7 mph (NNW)    
Max Wind Speed 15 mph    
Max Gust Speed 21 mph    
Visibility 10 miles    
Events      
Averages and records for this station are not official NWS values.
T = Trace of Precipitation, MM = Missing Value Source: NWS Daily Summary

Daily Weather History Graph

Daily Weather History Graph

Search for Another Location

Airport or City:

Astronomy

Oct. 29, 2010 Rise Set
Actual Time 7:30 AM EDT 6:19 PM EDT
Civil Twilight 7:04 AM EDT 6:45 PM EDT
Nautical Twilight 6:34 AM EDT 7:15 PM EDT
Astronomical Twilight 6:04 AM EDT 7:45 PM EDT
Moon No Moon Rise 1:26 PM EDT (10/29)
Length of Visible Light 11h 40m
Length of Day
10h 48m
Waning Gibbous, 60% of the Moon is Illuminated
Oct 29
Waning Gibbous
Oct 30
Last Quarter
Nov 6
New
Nov 13
First Quarter
Nov 21
Full

Hourly Weather History & Observations

Time (EDT) Temp. Windchill Dew Point Humidity Pressure Visibility Wind Dir Wind Speed Gust Speed Precip Events Conditions
12:53 AM 61.0 °F - 50.0 °F 67% 29.95 in 10.0 mi NW 5.8 mph - N/A   Clear
1:53 AM 59.0 °F - 46.0 °F 62% 29.96 in 10.0 mi NW 5.8 mph - N/A   Clear
2:53 AM 57.9 °F - 42.1 °F 56% 29.99 in 10.0 mi NNW 8.1 mph - N/A   Partly Cloudy
3:53 AM 57.0 °F - 41.0 °F 55% 30.01 in 10.0 mi North 9.2 mph - N/A   Clear
4:53 AM 55.0 °F - 39.9 °F 57% 30.04 in 10.0 mi North 9.2 mph - N/A   Clear
5:53 AM 53.1 °F - 39.9 °F 61% 30.08 in 10.0 mi North 10.4 mph - N/A   Clear
6:53 AM 51.1 °F - 39.9 °F 66% 30.12 in 10.0 mi North 8.1 mph - N/A   Clear
7:53 AM 50.0 °F - 39.9 °F 68% 30.13 in 10.0 mi NNW 4.6 mph - N/A   Clear
8:53 AM 52.0 °F - 39.9 °F 63% 30.15 in 10.0 mi North 9.2 mph - N/A   Clear
9:53 AM 55.0 °F - 37.9 °F 53% 30.17 in 10.0 mi North 15.0 mph 20.7 mph N/A   Clear
10:53 AM 55.9 °F - 37.0 °F 49% 30.17 in 10.0 mi NNW 11.5 mph - N/A   Clear
11:53 AM 59.0 °F - 37.0 °F 44% 30.16 in 10.0 mi NW 10.4 mph - N/A   Clear
12:53 PM 59.0 °F - 36.0 °F 42% 30.14 in 10.0 mi NW 11.5 mph 17.3 mph N/A   Clear
1:53 PM 61.0 °F - 36.0 °F 39% 30.12 in 10.0 mi NNW 10.4 mph - N/A   Clear
2:53 PM 62.1 °F - 36.0 °F 38% 30.12 in 10.0 mi NW 8.1 mph 16.1 mph N/A   Clear
3:53 PM 61.0 °F - 36.0 °F 39% 30.11 in 10.0 mi NW 9.2 mph - N/A   Clear
4:53 PM 60.1 °F - 35.1 °F 39% 30.11 in 10.0 mi North 8.1 mph - N/A   Clear
5:53 PM 57.9 °F - 36.0 °F 44% 30.13 in 10.0 mi NW 6.9 mph - N/A   Clear
6:53 PM 50.0 °F - 39.0 °F 66% 30.16 in 10.0 mi North 3.5 mph - N/A   Clear
7:53 PM 48.0 °F - 39.0 °F 71% 30.17 in 10.0 mi Calm Calm - N/A   Clear
8:53 PM 44.1 °F - 39.9 °F 85% 30.18 in 10.0 mi Calm Calm - N/A   Clear
9:53 PM 42.1 °F - 39.0 °F 89% 30.19 in 10.0 mi Calm Calm - N/A   Clear
10:53 PM 42.1 °F - 39.0 °F 89% 30.20 in 10.0 mi Calm Calm - N/A   Clear
11:53 PM 42.1 °F 37.1 °F 37.9 °F 85% 30.20 in 10.0 mi North 8.1 mph - N/A   Clear